www.pogodaiklimat.ru

Погода и климат >> Архив погоды >> Малайзия >> Sitiawan


ПОГОДА в Sitiawan

  • Прогноз погоды в Sitiawan
  • Монитор погоды в Sitiawan
  • Климат города

АРХИВ ПОГОДЫ в Sitiawan

Время (UTC), дата Ветер
(напр.,м/с)
 
Видим.   Явления Облачность Т
(С)
Тd
(С)
f
(%)
Тe
(С)
Тes
(С)
Комфортность P
(гПа)
Po
(гПа)
Тmin
(С)
Tmax
(С)
R
(мм)
R24
(мм)
S
(см)
00 12.11 штиль 0 7000 м мгла 9/4 500 м
[Cb cap Ac und Ci ing]
+25.1 +24.1 94 +35 +35 очень
душно
1010.2 1009.3 +24.7 1
03 12.11 СЗ 1 11 км мгла 9/4 600 м
[Cu med, cong Ac trans Ci sp]
+29.7 +25.6 79 +44 +50 опасность
перегрева
1011.3 1010.4
06 12.11 штиль 0 9000 м слабый дождь {ливн. осадки} 9/4 600 м
[Cu Sc Ac trans Cs]
+27.5 +25.7 90 +41 +49 опасность
перегрева
1008.4 1007.5 24
09 12.11 ЮЗ 1 13 км мгла 9/4 500 м
[Cb cap Ac trans Cs]
+30.9 +25.8 74 +46 +48 опасность
перегрева
1006.1 1005.2
12 12.11 С 2 9000 м мгла {дождь} 9/3 900 м
[Sc Ac lent Cs]
+27.7 +25.9 90 +41 +41 опасность
перегрева
1008.3 1007.4 +31.3 0.0
15 12.11 В 1 7000 м мгла 9/3 960 м
[Sc Ac trans Cs]
+26.4 +25.5 95 +39 +39 очень
душно
1010.0 1009.1
18 12.11 СВ 1 7000 м мгла 9/4 240 м
[St Ac trans Cs]
+26.0 +25.1 95 +37 +37 очень
душно
1008.9 1008.0
21 12.11 СЗ 1 8000 м зарница 9/4 500 м
[Cb cap Ac trans Cs]
+25.5 +24.6 95 +36 +36 очень
душно
1007.5 1006.6
00 13.11 штиль 0 6000 м слабый дождь 10/4 500 м
[Cb cap Ac lent Cs]
+25.2 +24.2 94 +35 +35 очень
душно
1008.9 1008.0 +25.0 24
03 13.11 В 1 9000 м мгла {дождь} 9/3 600 м
[Cu Sc Ac lent Cs]
+29.0 +24.9 79 +42 +48 опасность
перегрева
1010.1 1009.2
06 13.11 З 2 12 км мгла {дождь} 9/4 600 м
[Cu hum Ac lent Cs]
+30.6 +25.4 74 +45 +51 опасность
перегрева
1006.9 1006.0 0.4
09 13.11 С 3 6000 м гроза без осадков 9/4 300 м
[Cb cap Ac lent Cs]
+28.1 +24.7 82 +40 +42 очень
душно
1006.0 1005.1
12 13.11 С 1 6000 м слабый дождь {гроза} 10/4 240 м
[St Ac lent Cs]
+25.3 +24.5 95 +35 +35 очень
душно
1007.8 1006.9 +32.0 5
15 13.11 СВ 1 6000 м мгла 10/4 300 м
[St Ac lent Cs]
+24.9 +24.1 95 +34 +34 очень
душно
1009.3 1008.4
18 13.11 штиль 0 7000 м зарница {дождь} 9/3 500 м
[Cb cap Ac lent Cs]
+25.0 +24.3 96 +35 +35 очень
душно
1008.4 1007.5 0.4
21 13.11 штиль 0 7000 м дымка 9/3 180 м
[Sc Ac lent Cs]
+24.7 +23.9 95 +34 +34 очень
душно
1007.1 1006.2
00 14.11 СВ 1 7000 м дымка 9/1 600 м
[Cu hum Ac lent Ci sp]
+24.7 +23.9 95 +34 +34 очень
душно
1008.7 1007.8 +24.4 6
03 14.11 С 2 12 км мгла 9/3 500 м
[Cb cap Ac lent Ci sp]
+29.6 +25.4 78 +43 +48 опасность
перегрева
1010.2 1009.3
06 14.11 ЮЗ 2 12 км мгла 9/4 500 м
[Cb cap Ac lent Ci sp]
+31.3 +25.9 73 +47 +53 опасность
перегрева
1007.6 1006.7
09 14.11 В 1 11 км гроза, ливневой дождь 9/4 500 м
[Cb cap Ac lent Cs]
+29.7 +25.6 79 +44 +46 опасность
перегрева
1006.5 1005.6
12 14.11 штиль 0 6000 м слабый ливневой дождь, в посл. час гроза 10/5 210 м
[Cb cap As op Cs]
+25.0 +23.9 94 +34 +34 очень
душно
1008.8 1007.9 +32.4 4
15 14.11 штиль 0 6000 м дымка {дождь} 9/3 960 м
[Sc Ac lent Cs]
+25.2 +24.4 95 +35 +35 очень
душно
1009.9 1009.0
18 14.11 В 1 6000 м дымка 9/3 960 м
[Sc Ac lent Cs]
+25.0 +24.2 95 +34 +34 очень
душно
1009.0 1008.1 0.0
21 14.11 штиль 0 6000 м дымка 9/3 960 м
[Sc Ac lent Cs]
+24.7 +24.0 96 +34 +34 очень
душно
1007.9 1007.0
00 15.11 СВ 1 10 км мгла 9/3 500 м
[Cb cap Ac lent Ci sp]
+24.8 +23.9 95 +34 +34 очень
душно
1010.0 1009.1 +24.3 4
03 15.11 В 1 9000 м мгла 9/3 600 м
[Cu Sc Ac lent Cs]
+28.0 +24.9 83 +40 +46 очень
душно
1012.0 1011.1
06 15.11 Ю 2 12 км мгла 9/3 500 м
[Cb cap Ac lent Ci sp]
+31.0 +25.1 71 +45 +52 опасность
перегрева
1009.0 1008.1
09 15.11 ЮЗ 3 11 км слабый дождь 9/4 500 м
[Cb cap Ac lent Cs]
+28.2 +24.8 82 +40 +42 очень
душно
1007.3 1006.4
12 15.11 СВ 1 7000 м дождь 9/4 840 м
[Sc Ac lent Cs]
+26.4 +25.2 93 +38 +38 очень
душно
1010.4 1009.5 +32.0 4
15 15.11 С 1 7000 м мгла {дождь} 9/4 300 м
[St Ac lent Cs]
+24.9 +24.1 95 +34 +34 очень
душно
1011.6 1010.7
18 15.11 штиль 0 6000 м дымка 9/3 240 м
[Sc Ac trans Ci sp]
+24.6 +24.1 97 +34 +34 очень
душно
1010.3 1009.4 0.2
21 15.11 штиль 0 6000 м дымка 9/3 150 м
[Sc Ac lent Ci sp]
+24.4 +23.7 96 +33 +33 очень
душно
1009.1 1008.2
00 16.11 штиль 0 7000 м дымка 9/3 180 м
[Sc Ac lent Ci sp]
+24.5 +23.8 96 +33 +34 очень
душно
1010.8 1009.9 +24.4 4
03 16.11 В 2 12 км мгла 9/3 500 м
[Cb cap Ac lent Ci sp]
+29.2 +25.4 80 +43 +48 опасность
перегрева
1011.3 1010.4
06 16.11 Ю 2 14 км мгла 9/4 660 м
[Cu hum Ac trans Ci sp]
+31.3 +25.9 73 +47 +53 опасность
перегрева
1008.9 1008.0
09 16.11 ЮВ 3 14 км мгла 9/4 500 м
[Cb cap Ac lent Ci sp]
+32.0 +25.9 70 +47 +49 опасность
перегрева
1006.8 1005.9
12 16.11 штиль 0 12 км зарница 9/3 500 м
[Cb cap Ac lent Ci sp]
+28.7 +25.7 84 +43 +43 опасность
перегрева
1009.0 1008.1 +32.4
15 16.11 С 1 10 км мгла 9/3 1000 м
[Sc Ac lent Ci sp]
+26.4 +24.7 90 +37 +37 очень
душно
1010.6 1009.7
18 16.11 штиль 0 9000 м мгла 9/3 960 м
[Sc Ac lent Ci sp]
+25.5 +24.5 94 +36 +36 очень
душно
1009.9 1009.0
21 16.11 штиль 0 8000 м мгла 9/3 1000 м
[Sc Ac lent Ci sp]
+25.1 +24.2 95 +35 +35 очень
душно
1009.0 1008.1
00 17.11 штиль 0 8000 м мгла 9/4 360 м
[Cb cap Ac lent Cs]
+25.6 +24.6 94 +36 +36 очень
душно
1011.0 1010.1 +24.5
03 17.11 В 2 12 км мгла {дождь} 9/4 600 м
[Cu med, cong Ac lent Ci sp]
+30.9 +26.5 77 +47 +52 опасность
перегрева
1012.1 1011.2
06 17.11 ЮВ 2 12 км мгла 9/4 660 м
[Cu med, cong Ac lent Ci sp]
+33.6 +25.2 62 +48 +55 опасность
перегрева
1009.1 1008.2 0.8
09 17.11 Ю 2 10 км мгла 9/1 660 м
[Cu med, cong Ac trans Cs]
+32.6 +26.3 70 +49 +52 опасность
перегрева
1007.0 1006.1
12 17.11 ЮВ 2 8000 м мгла 9/3 960 м
[Sc Ac trans Cs]
+29.5 +25.1 77 +43 +43 опасность
перегрева
1008.5 1007.6 +34.0
15 17.11 штиль 0 8000 м мгла 9/3 1000 м
[Sc Ac trans Cs]
+27.7 +25.7 89 +41 +41 опасность
перегрева
1010.9 1010.0
18 17.11 штиль 0 8000 м мгла 9/3 1000 м
[Sc Ac lent Cs]
+26.2 +24.8 92 +37 +37 очень
душно
1010.1 1009.2
21 17.11 С 1 7000 м зарница 9/3 500 м
[Cb cap Ac lent Cs]
+25.9 +24.3 91 +36 +36 очень
душно
1009.1 1008.2
00 18.11 штиль 0 8000 м мгла 9/3 600 м
[Cu Sc Ac trans Ci sp]
+25.5 +23.9 91 +35 +35 очень
душно
1011.3 1010.4 +25.0 0.8
03 18.11 В 2 8000 м в посл. час гроза 9/4 500 м
[Cb cap Ac trans Ci sp]
+31.1 +25.9 74 +46 +51 опасность
перегрева
1013.2 1012.3
06 18.11 В 3 9000 м мгла {гроза} 9/4 500 м
[Cb cap Ac und Ci sp]
+33.7 +26.6 67 +51 +57 опасность
перегрева
1010.3 1009.4
09 18.11 С 2 11 км в посл. час гроза {ливн. осадки} 9/4 500 м
[Cb cap Ac trans Ci ing]
+27.7 +24.0 80 +38 +40 очень
душно
1008.0 1007.1
12 18.11 штиль 0 11 км мгла {гроза, ливн. осадки} 9/3 930 м
[Sc Ac trans Ci sp]
+27.8 +25.8 89 +41 +41 опасность
перегрева
1010.0 1009.1 +34.1 0.6
15 18.11 штиль 0 9000 м мгла 9/3 930 м
[Sc Ac trans Cs]
+26.7 +25.3 92 +39 +39 очень
душно
1013.2 1012.3
18 18.11 штиль 0 6000 м зарница {гроза} 9/3 500 м
[Cb cap Ac trans Cs]
+26.5 +24.8 90 +38 +38 очень
душно
1011.6 1010.7
21 18.11 СВ 2 6000 м зарница 9/3 500 м
[Cb cap Ac trans Ci sp]
+25.7 +24.4 93 +36 +36 очень
душно
1010.7 1009.8

 

Местоположение метеостанции Sitiawan (Малайзия): широта 4.22 долгота 100.70 высота над уровнем моря 8 м.

В архиве по умолчанию представлена погода в Sitiawan за последнюю неделю. Архивные данные за месяц целиком и за предыдущие месяцы, начиная с января 2011 года, Вы можете получить, выбрав интересующий диапазон дат из раскрывающегося списка и нажав кнопку "Ввод!".


*Определитесь, кто Вы:
робот инопланетянин человек

Внимание! Время в таблицах - всемирное. Для получения местного времени необходимо прибавить поправку, которая в Sitiawan равна 7 ч.

Смотрите также архив погоды в соседних городах и на ближайших метеорологических станциях:

Погода в Ipoh (Малайзия) (59 км)
Погода в Cameron Highlands (Малайзия) (79 км)
Погода в Penang (Малайзия) (130 км)
Погода в Butterworth Air Base (Малайзия) (143 км)
Погода в Kuala Lumpur (Малайзия) (155 км)
Погода в Kuala Lumpur Int Airport (Малайзия) (200 км)
Погода в Alor Star (Малайзия) (223 км)
Погода в Belawan (Индонезия) (227 км)
Погода в Medan Polonia Int Airport (Индонезия) (236 км)
Погода в Langkawi (Малайзия) (258 км)

Пояснения к столбцам:

Ветер - указаны скорость ветра в м/с - средняя за 10 мин, порывы в срок и между сроками (в фигурных скобках) и направление, откуда дует ветер: С - северный, СВ - северо-восточный, В - восточный, ЮВ - юго-восточный, Ю - южный, ЮЗ - юго-западный, З - западный, СЗ - северо-западный.
Видимость - горизонтальная дальность видимости в метрах или километрах. При видимости от 1 до 10 км при отсутствии осадков обычно наблюдается дымка, при ухудшении видимости до 1 км и менее - туман. В сухую погоду видимость может ухудшаться дымом, пылью или мглою.
Явления - указаны атмосферные явления, наблюдавшиеся в срок или в последний час перед сроком; фигурными скобками обозначены явления, наблюдавшиеся между сроками (за 1-3 часа до срока); квадратными скобками обозначены град или гололедные отложения с указанием их диаметра в мм.
Облачность - указаны через наклонную черту общая и нижняя облачность в баллах и высота нижней границы облаков в метрах; квадратными скобками обозначены формы облаков: Ci - перистые, Cs - перисто-слоистые, Cc - перисто-кучевые, Ac - высококучевые, As - высокослоистые, Sc - слоисто-кучевые, Ns - слоисто-дождевые, Cu - кучевые, Cb - кучево-дождевые. Подробнее классификацию облаков см. в Атласе облаков (PDF).
T - Температура воздуха - температура, измеренная на высоте 2 м над землей.
Td - Температура точки росы - температура, при понижении до которой содержащийся в воздухе водяной пар достигнет насыщения.
f - Относительная влажность воздуха - влажноcть воздуха, измеренная на высоте 2 м над землей.
Te - Эффективная температура - температура, которую ощущает одетый по сезону человек в тени. Характеристика душности погоды. При расчете учитывается влияние влажности воздуха и скорости ветра на теплоощущения человека.
Tes - Эффективная температура на солнце - температура, которую ощущает человек, с поправкой на солнечный нагрев. Характеристика знойности погоды. Зависит от высоты солнца над горизонтом, облачности и скорости ветра. Ночью, в пасмурную погоду, а также при ветре 12 м/с и более поправка равна нулю.
P - Атмосферное давление - приведенное к уровню моря атмосферное давление.
Po - Атмосферное давление - измеренное на уровне метеостанции атмосферное давление.
Tmin - Минимальная температура - минимум температуры воздуха на высоте 2 м над землей.
Tmax - Максимальная температура - максимум температуры воздуха на высоте 2 м над землей.
R - Количество осадков - Количество выпавших осадков за период времени, мм. При наведении курсора мыши на число - период времени, за который выпало указанное количество осадков.
R24 - Количество осадков - Количество выпавших осадков за 24 часа, мм.
S - Снежный покров - Высота снежного покрова, см. При наведении курсора мыши на число - состояние снежного покрова и степень покрытия местности в баллах.